ONEWEB-0024, 45137

Orbit data source: Space-Track

ONEWEB-0024, 45137 is a payload satellite owned by One Web (UK) in LEO that was launched on Thu, 06 Feb 2020 UTC via a SOYUZ-2-1B launch vehicle from the Tyuratam Missile And Space Complex (TTMTR). Payload-class satellites include a variety of spacecraft equipped with specific instruments for various scientific and technological missions. These include communications satellites like Starlink; space stations such as the ISS; scientific satellites like the Hubble; Earth observation satellites from companies like Planet Labs, Umbra, and HawkEye 360; GPS; miniature CubeSats for education and research; and military/defense satellites.

Loading next visibility...
Identifier
45137, 2020-008G
Orbit
LEO
Country
Flag of UKUK
Related business
Manufacturer
One Web
Mission
Operational Commercial Communications
Bus & Motor
ARROW, Unknown motor
Mass
148 kg wet, ~140 kg dry
Launch date (UTC)
2020-02-06 (6 years ago)
Launch vehicle
SOYUZ-2-1B
Launch site
Tyuratam Missile And Space Complex (TTMTR)
Object type
Payload
Rocket body
Debris
Shape & HBR
Trap Box + 2 Pan, 6.7 m
Radar Cross Section
3.464 m², Large (>1 m²)

Expand to show TLE details & history
Last TLE update: 6 hours ago

TLE from 6 hours ago
0 ONEWEB-0024
1 45137U 20008G   26035.10612978 -.00000652  00000-0 -19033-2 0  9993
2 45137  87.8765  62.7677 0001750  95.7675 264.3652 13.10374468290815
Epoch: 2026-02-04T02:32Z
TLE epoch observation values (Epoch: 2026-02-04T02:32:49.612Z)
Latitude
-0.00004°
Longitude
-109.71649°
Altitude
1,224.729 km
Speed
7.242 km/s
True Right ascension
04h 11m 04s
True Declination
0° 00' 00"
Sunlit
Object was in daylight at epoch
Visualization orbit readout
Latitude
Unknown
Longitude
Unknown
Altitude
Unknown
Speed
Unknown
Apparent Right ascension
Unknown
Apparent Declination
Unknown
Sunlit
N/A
Visualization observer readout
Local Sidereal Time
10:06:33
Azimuth
Unknown
Elevation
Unknown
Doppler factor
Unknown
Orbital elements
Apogee altitude
1,220.16 km
Perigee altitude
1,217.501 km
Semi-major axis
7,596.968 km
Eccentricity
0.00018
Inclination
87.8765°
RAAN
62.7677°
Arg. of periapsis
95.7675°
True anomaly
264.34524°
Mean anomaly
264.3652°
Eccentric anomaly
264.35522°
Mean motion
3.2778 °/min
Orbital period
109.83 mins
BSTAR
-0.0019033
Loading maneuver chart data...
Computing Atmospheric mass density...
Loading historical data...
Loading historical data...
Loading historical data...
Loading historical data...
Loading historical data...
Loading historical data...
Loading historical data...

Documentation

Showing up to 5 results
|